Weather History for KGNT - December, 2012

Change the Weather History Date:

Tuesday, December 4, 2012

  Actual Average Record
Temperature  
Mean Temperature 38 °F -  
Max Temperature 56 °F 51 °F 65 °F (1958)
Min Temperature 19 °F 16 °F -3 °F (1976)
Degree Days  
Heating Degree Days 28    
Moisture  
Dew Point 21 °F    
Average Humidity 62    
Maximum Humidity 95    
Minimum Humidity 23    
Precipitation  
Precipitation 0.00 in - - ()
Sea Level Pressure  
Sea Level Pressure 30.41 in    
Wind  
Wind Speed 4 mph (NW)    
Max Wind Speed 12 mph    
Max Gust Speed -    
Visibility 10 miles    
Events      
Averages and records for this station are not official NWS values.
T = Trace of Precipitation, MM = Missing Value Source: NWS Daily Summary

Daily Weather History Graph

Daily Weather History Graph

Search for Another Location

Airport or City:

Trip Planner

Search our weather history database for the weather conditions in past years. The results will help you decide how hot, cold, wet, or windy it might be!

Date:

Astronomy

Dec. 04, 2012 Rise Set
Actual Time 7:04 AM MST 4:59 PM MST
Civil Twilight 6:36 AM MST 5:27 PM MST
Nautical Twilight 6:05 AM MST 5:58 PM MST
Astronomical Twilight 5:34 AM MST 6:29 PM MST
Moon 10:41 PM MST (12/4) 11:08 AM MST (12/4)
Length of Visible Light 10h 50m
Length of Day
9h 54m
Waning Gibbous, 69% of the Moon is Illuminated
Dec 4
Waning Gibbous
Dec 6
Last Quarter
Dec 13
New
Dec 19
First Quarter
Dec 28
Full

Hourly Weather History & Observations

Time (MST) Temp. Windchill Dew Point Humidity Pressure Visibility Wind Dir Wind Speed Gust Speed Precip Events Conditions
12:15 AM 27.0 °F 23.0 °F 23.7 °F 88% 30.32 in 10.0 mi NNW 3.5 mph - N/A   Clear
12:35 AM 27.7 °F 22.4 °F 25.0 °F 90% 30.33 in 10.0 mi WNW 4.6 mph - N/A   Clear
12:55 AM 26.1 °F 18.4 °F 23.7 °F 91% 30.33 in 10.0 mi NW 6.9 mph - N/A   Clear
1:15 AM 29.5 °F 22.5 °F 26.1 °F 87% 30.33 in 10.0 mi WNW 6.9 mph - N/A   Clear
1:35 AM 28.8 °F 25.0 °F 25.7 °F 88% 30.33 in 10.0 mi WNW 3.5 mph - N/A   Clear
1:55 AM 25.5 °F 18.7 °F 23.2 °F 91% 30.34 in 10.0 mi NW 5.8 mph - N/A   Clear
2:15 AM 27.9 °F 20.6 °F 25.3 °F 90% 30.35 in 10.0 mi WNW 6.9 mph - N/A   Clear
2:35 AM 27.7 °F 22.4 °F 25.2 °F 90% 30.35 in 10.0 mi WNW 4.6 mph - N/A   Clear
2:55 AM 23.5 °F 16.4 °F 21.6 °F 92% 30.35 in 10.0 mi WNW 5.8 mph - N/A   Clear
3:15 AM 26.4 °F - 24.3 °F 92% 30.36 in 10.0 mi Calm Calm - N/A   Clear
3:35 AM 23.7 °F - 21.9 °F 93% 30.37 in 10.0 mi Calm Calm - N/A   Clear
3:55 AM 21.4 °F - 19.0 °F 91% 30.36 in 10.0 mi Calm Calm - N/A   Clear
4:15 AM 19.6 °F 13.0 °F 17.6 °F 92% 30.36 in 10.0 mi NNW 4.6 mph - N/A   Clear
4:35 AM 20.8 °F 13.2 °F 19.4 °F 94% 30.37 in 10.0 mi NW 5.8 mph - N/A   Clear
4:55 AM 21.0 °F 14.6 °F 19.4 °F 93% 30.37 in 10.0 mi WNW 4.6 mph - N/A   Clear
5:15 AM 21.0 °F 16.2 °F 19.8 °F 95% 30.38 in 10.0 mi WNW 3.5 mph - N/A   Clear
5:35 AM 20.5 °F - 18.9 °F 93% 30.39 in 10.0 mi Calm Calm - N/A   Clear
5:55 AM 20.7 °F - 18.9 °F 93% 30.40 in 10.0 mi Calm Calm - N/A   Clear
6:15 AM 20.7 °F 15.8 °F 18.9 °F 93% 30.40 in 10.0 mi WNW 3.5 mph - N/A   Clear
6:35 AM 23.5 °F 14.5 °F 22.1 °F 94% 30.41 in 10.0 mi NW 8.1 mph - N/A   Clear
6:55 AM 22.3 °F 11.5 °F 20.1 °F 91% 30.42 in 10.0 mi NW 10.4 mph - N/A   Clear
7:15 AM 22.6 °F 11.3 °F 21.0 °F 93% 30.43 in 10.0 mi NW 11.5 mph - N/A   Clear
7:35 AM 22.1 °F 12.8 °F 19.9 °F 91% 30.44 in 10.0 mi NW 8.1 mph - N/A   Clear
7:55 AM 23.5 °F 17.6 °F 21.7 °F 93% 30.44 in 10.0 mi NW 4.6 mph - N/A   Clear
8:15 AM 25.7 °F 19.0 °F 23.5 °F 92% 30.46 in 10.0 mi WNW 5.8 mph - N/A   Clear
8:35 AM 28.2 °F 21.0 °F 24.8 °F 87% 30.46 in 10.0 mi NW 6.9 mph - N/A   Clear
8:55 AM 31.3 °F 24.7 °F 26.4 °F 82% 30.47 in 10.0 mi NW 6.9 mph - N/A   Clear
9:15 AM 34.9 °F 28.3 °F 28.0 °F 76% 30.48 in 10.0 mi North 8.1 mph - N/A   Clear
9:35 AM 36.3 °F 32.5 °F 27.7 °F 71% 30.48 in 10.0 mi North 4.6 mph - N/A   Clear
9:55 AM 37.4 °F 34.9 °F 28.6 °F 70% 30.50 in 10.0 mi West 3.5 mph - N/A   Clear
10:15 AM 41.2 °F - 31.3 °F 68% 30.50 in 10.0 mi Calm Calm - N/A   Clear
10:35 AM 43.2 °F 40.5 °F 31.6 °F 64% 30.50 in 10.0 mi WNW 4.6 mph - N/A   Clear
10:55 AM 44.6 °F 42.2 °F 32.0 °F 61% 30.50 in 10.0 mi NW 4.6 mph - N/A   Clear
11:15 AM 46.9 °F - 31.8 °F 56% 30.49 in 10.0 mi Calm Calm - N/A   Clear
11:35 AM 49.1 °F - 29.7 °F 47% 30.47 in 10.0 mi Calm Calm - N/A   Clear
11:55 AM 52.0 °F - 25.3 °F 36% 30.46 in 10.0 mi North 5.8 mph - N/A   Clear
12:15 PM 52.5 °F - 22.8 °F 31% 30.45 in 10.0 mi Calm Calm - N/A   Clear
12:35 PM 52.7 °F - 22.5 °F 31% 30.45 in 10.0 mi North 3.5 mph - N/A   Clear
12:55 PM 54.7 °F - 23.0 °F 29% 30.44 in 10.0 mi NNE 6.9 mph - N/A   Clear
1:15 PM 53.8 °F - 22.3 °F 29% 30.42 in 10.0 mi NNW 4.6 mph - N/A   Clear
1:35 PM 55.0 °F - 21.6 °F 27% 30.42 in 10.0 mi NNE 4.6 mph - N/A   Clear
1:55 PM 55.6 °F - 19.9 °F 25% 30.40 in 10.0 mi NNE 3.5 mph - N/A   Clear
2:15 PM 55.9 °F - 19.2 °F 24% 30.39 in 10.0 mi NNW 5.8 mph - N/A   Clear
2:35 PM 55.9 °F - 19.2 °F 24% 30.38 in 10.0 mi North 5.8 mph - N/A   Clear
2:55 PM 56.3 °F - 19.9 °F 24% 30.38 in 10.0 mi North 4.6 mph - N/A   Clear
3:15 PM 56.7 °F - 19.9 °F 24% 30.37 in 10.0 mi North 3.5 mph - N/A   Clear
3:35 PM 56.7 °F - 19.4 °F 23% 30.38 in 10.0 mi North 5.8 mph - N/A   Clear
3:55 PM 56.5 °F - 19.2 °F 23% 30.38 in 10.0 mi North 3.5 mph - N/A   Clear
4:15 PM 55.9 °F - 18.7 °F 23% 30.38 in 10.0 mi North 6.9 mph - N/A   Clear
4:35 PM 53.1 °F - 17.8 °F 25% 30.39 in 10.0 mi North 5.8 mph - N/A   Clear
4:55 PM 46.8 °F - 17.6 °F 31% 30.38 in 10.0 mi WNW 3.5 mph - N/A   Clear
5:15 PM 45.0 °F 43.5 °F 17.6 °F 33% 30.38 in 10.0 mi West 3.5 mph - N/A   Clear
5:35 PM 45.7 °F 42.7 °F 17.2 °F 32% 30.40 in 10.0 mi WNW 5.8 mph - N/A   Clear
5:55 PM 44.6 °F 42.2 °F 17.1 °F 33% 30.40 in 10.0 mi NNW 4.6 mph - N/A   Clear
6:15 PM 40.1 °F - 16.7 °F 39% 30.41 in 10.0 mi Calm Calm - N/A   Clear
6:35 PM 38.7 °F - 15.1 °F 38% 30.41 in 10.0 mi Calm Calm - N/A   Clear
6:55 PM 37.6 °F - 17.4 °F 44% 30.41 in 10.0 mi Calm Calm - N/A   Clear
7:15 PM 36.0 °F - 16.5 °F 45% 30.41 in 10.0 mi Calm Calm - N/A   Clear
7:35 PM 36.0 °F 33.3 °F 17.1 °F 46% 30.41 in 10.0 mi NW 3.5 mph - N/A   Clear
7:55 PM 36.9 °F - 17.6 °F 46% 30.42 in 10.0 mi Calm Calm - N/A   Clear
8:15 PM 33.1 °F - 17.6 °F 53% 30.42 in 10.0 mi Calm Calm - N/A   Clear
8:35 PM 32.0 °F - 17.2 °F 55% 30.42 in 10.0 mi Calm Calm - N/A   Clear
9:15 PM 32.4 °F 26.0 °F 16.3 °F 52% 30.43 in 10.0 mi WNW 6.9 mph - N/A   Clear
9:35 PM 32.0 °F 25.6 °F 16.0 °F 52% 30.43 in 10.0 mi WNW 6.9 mph - N/A   Clear
9:55 PM 32.4 °F 26.0 °F 16.3 °F 52% 30.43 in 10.0 mi NW 6.9 mph - N/A   Clear
10:15 PM 32.5 °F 28.1 °F 17.1 °F 53% 30.43 in 10.0 mi NW 4.6 mph - N/A   Clear
10:35 PM 30.4 °F 26.9 °F 16.3 °F 56% 30.43 in 10.0 mi NNW 3.5 mph - N/A   Clear
10:55 PM 27.1 °F 21.8 °F 14.9 °F 60% 30.42 in 10.0 mi NNW 4.6 mph - N/A   Clear
11:15 PM 27.3 °F 22.0 °F 14.2 °F 58% 30.41 in 10.0 mi NNW 4.6 mph - N/A   Clear
11:35 PM 26.4 °F 18.9 °F 14.4 °F 60% 30.40 in 10.0 mi NNW 6.9 mph - N/A   Clear
11:55 PM 27.5 °F 21.1 °F 15.3 °F 60% 30.40 in 10.0 mi NNW 5.8 mph - N/A   Clear